Flag for Germany Weather past 2 weeks in Greven, North Rhine-Westphalia, Germany

39 °F

Passing clouds.

Feels Like: 31 °F
Forecast: 42 / 52 °F
Wind: 14 mph from Southwest

Location: Muenster / Osnabrueck

Current Time: Nov 28, 2015 at 6:53:56 AM

Latest Report: Nov 28, 2015 at 5:50 AM

Visibility: 4 mi

Pressure: 29.62 "Hg

Humidity: 93%

Dew point: 37 °F

Location of GrevenLocation

Historic Weather in Greven — Graph


Greven temperature yesterday

Maximum temperature yesterday: 45 °F (at 1:50 PM)
Minimum temperature yesterday: 28 °F (at 12:20 AM)
Average temperature yesterday: 37 °F

Past Weeks' High & Low Weather Summary

High61 °F (Nov 17, 9:50 PM)100% (Nov 15, 4:50 AM)30.21 "Hg (Nov 15, 4:50 AM)
Low28 °F (Nov 27, 12:20 AM)47% (Nov 13, 4:20 PM)29.36 "Hg (Nov 21, 3:50 AM)
Average45 °F84%29.84 "Hg
* Reported Nov 13 4:20 AM — Nov 28 4:50 AM, Greven, Weather by CustomWeather, © 2015

Note: Actual official high and low records may vary slightly from our data, if they occured in-between our weather recording intervals... More about our weather records


Greven weather history for previous 24 hours

Time TempWeatherWind HumidityBarometerVisibility
4:50 AM
Sat, Nov 28
39 °FPassing clouds.12 mph93%29.62 "Hg4 mi
4:20 AM37 °FPassing clouds.13 mph93%29.62 "Hg4 mi
3:50 AM39 °FPassing clouds.14 mph87%29.65 "Hg2 mi
3:20 AM39 °FPassing clouds.12 mph81%29.65 "HgN/A
2:50 AM39 °FPassing clouds.13 mph81%29.68 "HgN/A
2:20 AM39 °FPassing clouds.12 mph75%29.68 "HgN/A
12:50 AM39 °FPassing clouds.13 mph75%29.74 "HgN/A
11:50 PM
Fri, Nov 27
39 °FPassing clouds.13 mph75%29.77 "HgN/A
11:20 PM39 °FPassing clouds.16 mph75%29.77 "HgN/A
10:50 PM39 °FPassing clouds.14 mph75%29.77 "HgN/A
9:50 PM41 °FPassing clouds.14 mph76%29.80 "HgN/A
9:20 PM41 °FPartly cloudy.12 mph76%29.80 "HgN/A
8:50 PM41 °FPartly cloudy.10 mph76%29.83 "HgN/A
8:20 PM41 °FPassing clouds.10 mph76%29.83 "HgN/A
7:50 PM41 °FPassing clouds.12 mph76%29.86 "HgN/A
7:20 PM41 °FPassing clouds.12 mph76%29.86 "HgN/A
6:20 PM41 °FPassing clouds.12 mph81%29.86 "HgN/A
5:50 PM41 °FPassing clouds.13 mph81%29.89 "HgN/A
5:20 PM41 °FPassing clouds.10 mph81%29.89 "HgN/A
4:50 PM41 °FPassing clouds.8 mph81%29.89 "HgN/A
4:20 PM43 °FSunny.8 mph76%29.92 "Hg10 mi
3:50 PM43 °FPassing clouds.8 mph76%29.92 "HgN/A
3:20 PM45 °FPassing clouds.7 mph71%29.92 "HgN/A
2:50 PM45 °FPassing clouds.10 mph71%29.95 "HgN/A
2:20 PM45 °FPassing clouds.10 mph71%29.95 "HgN/A
1:50 PM45 °FPassing clouds.10 mph71%29.98 "HgN/A
1:20 PM43 °FPassing clouds.10 mph76%29.98 "HgN/A
12:50 PM43 °FPassing clouds.10 mph76%30.01 "HgN/A
12:20 PM43 °FPassing clouds.10 mph76%30.01 "HgN/A
11:50 AM41 °FPassing clouds.9 mph81%30.04 "HgN/A
11:20 AM39 °FPassing clouds.10 mph87%30.04 "HgN/A
10:50 AM39 °FPassing clouds.7 mph87%30.04 "HgN/A
10:20 AM37 °FFog.6 mph93%30.07 "Hg3 mi
9:50 AM36 °FFog.7 mph100%30.07 "Hg3 mi
9:20 AM34 °FFog.6 mph100%30.07 "Hg3 mi
8:50 AM34 °FFog.7 mph100%30.07 "Hg3 mi
7:50 AM34 °FFog.6 mph100%30.07 "Hg3 mi
7:20 AM32 °FIce fog.6 mph100%30.07 "Hg3 mi
6:50 AM32 °FIce fog.5 mph100%30.07 "Hg3 mi
6:20 AM32 °FIce fog.5 mph100%30.09 "Hg2 mi
Weather by CustomWeather, © 2015

See weather overviewHow to use our weather pages